Location: Hradec Kralove
(50.2170°N, 15.8330°E)
Time: 03:07:17
(UTC+01:00)

N. Korean satellite - Pass Details

Date: 08 December 2022
Orbit: 407 x 442 km, 97.3° (Epoch: 05 February)

Event Time Altitude Azimuth Distance (km) Brightness Sun altitude
Rises 17:03:05 0° 194° (SSW) 2,468 10.7 -10.4°
Reaches altitude 10° 17:05:21 10° 209° (SSW) 1,608 10.0 -10.7°
Maximum altitude 17:08:15 25° 266° (W) 991 9.1 -11.2°
Drops below altitude 10° 17:11:12 10° 323° (NW) 1,636 9.4 -11.6°
Sets 17:13:32 0° 337° (NNW) 2,521 10.2 -12.0°
